SHIYAN 32-03

Satellite information

Favourite Embed

Satellite Type and Status

PAYLOADIN ORBIT

Key statistics

Satellite SHIYAN 32-03 at a glance.

Uptime

29

Days in orbit

Revolutions

≈ 15.4

Per day

Orbit

LEO

Low Earth Orbit

Inclination

53.0

Latest

Satellite identification and parameters

Extended collection of information and parameters for SHIYAN 32-03.

Object identification

Identified? True

Debris? False

Object name: SHIYAN 32-03

International designator: 2025-255D

Object number (NORAD): 66379

Object ID (CCSDS): 66379

Country: PEOPLES REPUBLIC OF CHINA (PRC)

Current information (Y/N): Y

Orbital parameters

Period: 93.336 minutes

Inclination: 52.9952 deg

SMA: 6815.933 km

Apoapsis: 448.367 km

Periapsis: 427.23 km

RAAN: 206.6219 deg

Eccentricy: 0.0015506

Argument of periapsis: 24.3949 deg

Mean anomaly: 335.7786 deg

Mean motion: 15.42818211 rev/day

Mean motion (dot): 0.00024567 rev/day2

B* drag term: 0.00055754 1/REarth

Two-line elements (TLE)

Creation date: Dec. 6, 2025, 7:16 p.m.

Reference frame: TEME

Reference center: EARTH

Epoch: Dec. 6, 2025, 5:19 p.m. UTC

TLE line 0: 0 SHIYAN 32-03

TLE line 1: 1 66379U 25255D 25340.72172809 .00024567 00000-0 55754-3 0 9993

TLE line 2: 2 66379 52.9952 206.6219 0015506 24.3949 335.7786 15.42818211 4308

Live tracking on map

Real-time ground track for satellite SHIYAN 32-03.

In-orbit conjunctions

There are no conjunctions computed for SHIYAN 32-03, at the moment. Check back to stay up to date, as we update our databases every day.

Go to all conjunctions

Associated space launch

3 Chinese satellites reported to be for "orbital technological testing" purposes. Actual usage not known.

SHIYAN 32-03 was lifted into orbit during the mission ‘Long March 11 | Shiyan 32 01-03’, on board a Long March 11 space rocket.

The launch took place on Nov. 8, 2025, 9:01 p.m. from Oriental Spaceport mobile launch ship.

For more information about the launch, click the button.

Launch to space Long March 11 | Shiyan 32 01-03
Long March 11 | Shiyan 32 01-03

Agency: N/A

Status: Launch Successful

Launch date: Nov. 8, 2025, 9:01 p.m. UTC

Rocket: Long March 11

Launch pad: Oriental Spaceport mobile launch ship

Location: Sea Launch

...

Latest news about this satellite

News about space launch
China breaks annual launch record with VLEO Chutian and Shiyan technology test launches

China conducted a pair of solid rocket launches late Saturday, seeing the country surpass its previous record for orbital launch attempts in a calendar year. The post China breaks annual launch record with VLEO Chutian and Shiyan technology test launches...


Newsletter sign-up

Weekly statistics, charts and insights to help you stay on top of the space industry.